Time,TemperatureF,DewpointF,PressureIn,WindDirection,WindDirectionDegrees,WindSpeedMPH,WindSpeedGustMPH,Humidity,HourlyPrecipIn,Conditions,Clouds,dailyrainin,SoftwareType,DateUTC
2013-05-14 00:03:00,58.7,48.2,29.54,West,274,0.0,0.0,68,0.00,,---,0.00,VWS V13.01,2013-05-14 07:03:00,
2013-05-14 00:08:00,58.7,49.0,29.54,West,273,0.0,2.0,70,0.00,,---,0.00,VWS V13.01,2013-05-14 07:08:00,
2013-05-14 00:13:00,58.8,49.8,29.54,West,271,0.0,3.0,72,0.00,,---,0.00,VWS V13.01,2013-05-14 07:13:00,
2013-05-14 00:18:00,58.9,51.0,29.54,WSW,240,0.0,3.0,75,0.00,,---,0.00,VWS V13.01,2013-05-14 07:18:00,
2013-05-14 00:23:00,59.0,51.5,29.54,SW,222,1.0,6.0,76,0.00,,---,0.00,VWS V13.01,2013-05-14 07:23:00,
2013-05-14 00:28:00,59.1,51.5,29.54,West,269,0.0,6.0,76,0.00,,---,0.00,VWS V13.01,2013-05-14 07:28:00,
2013-05-14 00:33:00,59.0,51.8,29.54,WSW,237,1.0,6.0,77,0.00,,---,0.00,VWS V13.01,2013-05-14 07:33:00,
2013-05-14 00:38:00,58.9,51.7,29.54,WSW,238,1.0,6.0,77,0.00,,---,0.00,VWS V13.01,2013-05-14 07:38:00,
2013-05-14 00:43:00,58.7,51.5,24.71,SW,236,3.0,6.0,77,0.00,,---,0.00,VWS V13.01,2013-05-14 07:43:00,
2013-05-14 00:48:00,58.5,51.3,24.71,SW,234,0.0,6.0,77,0.00,,---,0.00,VWS V13.01,2013-05-14 07:48:00,
2013-05-14 00:53:00,58.4,51.2,24.71,WNW,291,1.0,6.0,77,0.00,,---,0.00,VWS V13.01,2013-05-14 07:53:00,
2013-05-14 00:58:00,58.0,49.8,24.71,West,281,2.0,6.0,74,0.00,,---,0.00,VWS V13.01,2013-05-14 07:58:00,
2013-05-14 01:06:00,57.8,49.6,24.71,WNW,292,1.0,6.0,74,0.00,,---,0.00,VWS V13.01,2013-05-14 08:06:00,
2013-05-14 01:11:00,57.7,49.8,24.71,WSW,250,0.0,1.0,75,0.00,,---,0.00,VWS V13.01,2013-05-14 08:11:00,
2013-05-14 01:16:00,57.7,49.8,24.71,WSW,250,0.0,1.0,75,0.00,,---,0.00,VWS V13.01,2013-05-14 08:16:00,
2013-05-14 01:21:00,57.6,49.8,24.71,WSW,250,0.0,1.0,75,0.00,,---,0.00,VWS V13.01,2013-05-14 08:21:00,
2013-05-14 01:26:00,57.4,48.8,29.54,WSW,250,0.0,1.0,73,0.00,,---,0.00,VWS V13.01,2013-05-14 08:26:00,
2013-05-14 01:31:00,57.2,48.6,29.54,WSW,250,0.0,1.0,73,0.00,,---,0.00,VWS V13.01,2013-05-14 08:31:00,
2013-05-14 01:36:00,57.1,48.9,29.54,WSW,250,0.0,1.0,74,0.00,,---,0.00,VWS V13.01,2013-05-14 08:36:00,
2013-05-14 01:41:00,57.0,48.8,29.54,WSW,250,0.0,1.0,74,0.00,,---,0.00,VWS V13.01,2013-05-14 08:41:00,
2013-05-14 01:46:00,57.0,48.4,23.45,SW,236,1.0,4.0,73,0.00,,---,0.00,VWS V13.01,2013-05-14 08:46:00,
2013-05-14 01:51:00,57.0,48.4,23.45,SW,225,0.0,4.0,73,0.00,,---,0.00,VWS V13.01,2013-05-14 08:51:00,
2013-05-14 01:56:00,57.0,48.4,23.45,SW,225,0.0,4.0,73,0.00,,---,0.00,VWS V13.01,2013-05-14 08:56:00,
2013-05-14 02:01:00,57.0,48.4,26.85,SW,225,0.0,4.0,73,0.00,,---,0.00,VWS V13.01,2013-05-14 09:01:00,
2013-05-14 02:06:00,56.9,48.3,26.85,SW,225,0.0,0.0,73,0.00,,---,0.00,VWS V13.01,2013-05-14 09:06:00,
2013-05-14 02:11:00,56.8,48.2,26.85,SW,225,0.0,0.0,73,0.00,,---,0.00,VWS V13.01,2013-05-14 09:11:00,
2013-05-14 02:16:00,56.6,48.1,26.85,SW,225,0.0,0.0,73,0.00,,---,0.00,VWS V13.01,2013-05-14 09:16:00,
2013-05-14 02:21:00,56.4,48.2,26.85,WSW,237,0.0,2.0,74,0.00,,---,0.00,VWS V13.01,2013-05-14 09:21:00,
2013-05-14 02:26:00,56.2,48.0,26.85,WSW,237,0.0,2.0,74,0.00,,---,0.00,VWS V13.01,2013-05-14 09:26:00,
2013-05-14 02:31:00,56.1,47.9,26.85,WSW,237,0.0,2.0,74,0.00,,---,0.00,VWS V13.01,2013-05-14 09:31:00,
2013-05-14 02:36:00,56.0,47.8,26.85,WSW,237,0.0,2.0,74,0.00,,---,0.00,VWS V13.01,2013-05-14 09:36:00,
2013-05-14 02:41:00,55.9,48.1,26.85,West,268,0.0,4.0,75,0.00,,---,0.00,VWS V13.01,2013-05-14 09:41:00,
2013-05-14 02:46:00,55.8,48.0,26.85,WNW,284,0.0,4.0,75,0.00,,---,0.00,VWS V13.01,2013-05-14 09:46:00,
2013-05-14 02:51:00,55.7,47.9,28.41,WNW,283,0.0,4.0,75,0.00,,---,0.00,VWS V13.01,2013-05-14 09:51:00,
2013-05-14 02:56:00,55.6,47.8,28.41,WNW,283,0.0,4.0,75,0.00,,---,0.00,VWS V13.01,2013-05-14 09:56:00,
2013-05-14 03:01:00,55.6,47.8,24.80,SW,236,0.0,4.0,75,0.00,,---,0.00,VWS V13.01,2013-05-14 10:01:00,
2013-05-14 03:06:00,55.5,47.7,24.80,WNW,294,4.0,6.0,75,0.00,,---,0.00,VWS V13.01,2013-05-14 10:06:00,
2013-05-14 03:11:00,55.5,48.1,24.80,WSW,244,0.0,6.0,76,0.00,,---,0.00,VWS V13.01,2013-05-14 10:11:00,
2013-05-14 03:16:00,55.4,48.0,24.80,WNW,284,0.0,10.0,76,0.00,,---,0.00,VWS V13.01,2013-05-14 10:16:00,
2013-05-14 03:21:00,55.2,48.1,24.80,WSW,248,0.0,10.0,77,0.00,,---,0.00,VWS V13.01,2013-05-14 10:21:00,
2013-05-14 03:26:00,55.0,47.9,24.80,West,259,0.0,10.0,77,0.00,,---,0.00,VWS V13.01,2013-05-14 10:26:00,
2013-05-14 03:31:00,55.0,48.3,24.80,WNW,290,0.0,10.0,78,0.00,,---,0.00,VWS V13.01,2013-05-14 10:31:00,
2013-05-14 03:36:00,54.8,48.1,24.80,WNW,292,1.0,10.0,78,0.00,,---,0.00,VWS V13.01,2013-05-14 10:36:00,
2013-05-14 03:41:00,54.6,47.9,24.80,WSW,246,1.0,10.0,78,0.00,,---,0.00,VWS V13.01,2013-05-14 10:41:00,
2013-05-14 03:46:00,54.4,48.0,24.80,WNW,288,0.0,10.0,79,0.00,,---,0.00,VWS V13.01,2013-05-14 10:46:00,
2013-05-14 03:51:00,54.2,47.8,29.78,WNW,287,0.0,10.0,79,0.00,,---,0.00,VWS V13.01,2013-05-14 10:51:00,
2013-05-14 03:56:00,54.1,48.1,29.78,West,280,0.0,10.0,80,0.00,,---,0.00,VWS V13.01,2013-05-14 10:56:00,
2013-05-14 04:01:00,53.9,47.9,29.78,WSW,239,0.0,10.0,80,0.00,,---,0.00,VWS V13.01,2013-05-14 11:01:00,
2013-05-14 04:06:00,53.8,47.8,29.78,West,280,0.0,4.0,80,0.00,,---,0.00,VWS V13.01,2013-05-14 11:06:00,
2013-05-14 04:11:00,53.7,48.0,29.78,West,273,0.0,7.0,81,0.00,,---,0.00,VWS V13.01,2013-05-14 11:11:00,
2013-05-14 04:16:00,53.7,48.0,29.78,West,272,0.0,7.0,81,0.00,,---,0.00,VWS V13.01,2013-05-14 11:16:00,
2013-05-14 04:21:00,53.6,47.9,25.27,West,269,0.0,7.0,81,0.00,,---,0.00,VWS V13.01,2013-05-14 11:21:00,
2013-05-14 04:26:00,53.7,48.0,25.27,West,269,0.0,7.0,81,0.00,,---,0.00,VWS V13.01,2013-05-14 11:26:00,
2013-05-14 04:31:00,53.7,48.0,25.27,West,269,0.0,7.0,81,0.00,,---,0.00,VWS V13.01,2013-05-14 11:31:00,
2013-05-14 04:37:00,53.7,47.7,31.67,West,269,0.0,7.0,80,0.00,,---,0.00,VWS V13.01,2013-05-14 11:37:00,
2013-05-14 04:42:00,53.6,47.6,31.67,West,269,0.0,7.0,80,0.00,,---,0.00,VWS V13.01,2013-05-14 11:42:00,
2013-05-14 04:47:00,53.6,47.6,31.67,West,269,0.0,7.0,80,0.00,,---,0.00,VWS V13.01,2013-05-14 11:47:00,
2013-05-14 04:52:00,53.6,47.6,31.67,SW,227,0.0,7.0,80,0.00,,---,0.00,VWS V13.01,2013-05-14 11:52:00,
2013-05-14 04:57:00,53.5,47.8,31.67,SW,215,0.0,7.0,81,0.00,,---,0.00,VWS V13.01,2013-05-14 11:57:00,
2013-05-14 05:02:00,53.5,47.5,31.67,SW,215,0.0,7.0,80,0.00,,---,0.00,VWS V13.01,2013-05-14 12:02:00,
2013-05-14 05:07:00,53.5,47.5,31.67,SW,215,0.0,1.0,80,0.00,,---,0.00,VWS V13.01,2013-05-14 12:07:00,
2013-05-14 05:12:00,53.6,47.6,28.50,SW,215,0.0,1.0,80,0.00,,---,0.00,VWS V13.01,2013-05-14 12:12:00,
2013-05-14 05:17:00,53.6,47.6,28.50,SW,215,0.0,1.0,80,0.00,,---,0.00,VWS V13.01,2013-05-14 12:17:00,
2013-05-14 05:22:00,53.6,47.6,28.50,SW,215,0.0,1.0,80,0.00,,---,0.00,VWS V13.01,2013-05-14 12:22:00,
2013-05-14 05:27:00,53.5,47.5,28.50,SW,215,0.0,1.0,80,0.00,,---,0.00,VWS V13.01,2013-05-14 12:27:00,
2013-05-14 05:32:00,53.4,47.4,22.10,SW,215,0.0,1.0,80,0.00,,---,0.00,VWS V13.01,2013-05-14 12:32:00,
2013-05-14 05:37:00,53.3,47.3,19.85,SW,215,0.0,1.0,80,0.00,,---,0.00,VWS V13.01,2013-05-14 12:37:00,
2013-05-14 05:42:00,53.3,47.3,19.85,SW,215,0.0,1.0,80,0.00,,---,0.00,VWS V13.01,2013-05-14 12:42:00,
2013-05-14 05:47:00,53.2,47.5,19.85,SW,215,0.0,1.0,81,0.00,,---,0.00,VWS V13.01,2013-05-14 12:47:00,
2013-05-14 05:52:00,53.2,47.5,19.85,WNW,292,1.0,3.0,81,0.00,,---,0.00,VWS V13.01,2013-05-14 12:52:00,
2013-05-14 05:57:00,53.3,48.0,19.85,WNW,291,2.0,3.0,82,0.00,,---,0.00,VWS V13.01,2013-05-14 12:57:00,
2013-05-14 06:02:00,53.5,47.8,19.85,WNW,283,0.0,3.0,81,0.00,,---,0.00,VWS V13.01,2013-05-14 13:02:00,
2013-05-14 06:07:00,53.6,47.9,19.85,WNW,284,0.0,0.0,81,0.00,,---,0.00,VWS V13.01,2013-05-14 13:07:00,
2013-05-14 06:12:00,53.7,48.0,19.85,West,281,0.0,2.0,81,0.00,,---,0.00,VWS V13.01,2013-05-14 13:12:00,
2013-05-14 06:17:00,53.6,47.9,19.85,WNW,282,0.0,2.0,81,0.00,,---,0.00,VWS V13.01,2013-05-14 13:17:00,
2013-05-14 06:22:00,53.7,48.0,19.85,WNW,296,0.0,3.0,81,0.00,,---,0.00,VWS V13.01,2013-05-14 13:22:00,
2013-05-14 06:27:00,53.7,47.7,26.33,WSW,240,0.0,3.0,80,0.00,,---,0.00,VWS V13.01,2013-05-14 13:27:00,
2013-05-14 06:32:00,53.7,47.7,26.33,SSW,212,0.0,3.0,80,0.00,,---,0.00,VWS V13.01,2013-05-14 13:32:00,
2013-05-14 06:37:00,53.8,47.8,30.69,SSW,212,0.0,3.0,80,0.00,,---,0.00,VWS V13.01,2013-05-14 13:37:00,
2013-05-14 06:42:00,53.9,47.9,28.51,SW,231,0.0,3.0,80,0.00,,---,0.00,VWS V13.01,2013-05-14 13:42:00,
2013-05-14 06:47:00,54.1,48.1,30.69,SW,221,0.0,3.0,80,0.00,,---,0.00,VWS V13.01,2013-05-14 13:47:00,
2013-05-14 06:52:00,54.3,48.3,30.69,SW,223,0.0,3.0,80,0.00,,---,0.00,VWS V13.01,2013-05-14 13:52:00,
2013-05-14 06:57:00,54.5,48.1,30.69,WNW,288,1.0,3.0,79,0.00,,---,0.00,VWS V13.01,2013-05-14 13:57:00,
2013-05-14 07:02:00,54.9,48.5,30.69,SW,219,0.0,3.0,79,0.00,,---,0.00,VWS V13.01,2013-05-14 14:02:00,
2013-05-14 07:07:00,55.4,49.0,19.85,SW,215,0.0,4.0,79,0.00,,---,0.00,VWS V13.01,2013-05-14 14:07:00,
2013-05-14 07:12:00,55.7,49.0,17.59,SW,225,0.0,4.0,78,0.00,,---,0.00,VWS V13.01,2013-05-14 14:12:00,
2013-05-14 07:17:00,56.1,49.7,17.59,West,272,0.0,4.0,79,0.00,,---,0.00,VWS V13.01,2013-05-14 14:17:00,
2013-05-14 07:22:00,56.4,49.6,17.59,WSW,238,0.0,4.0,78,0.00,,---,0.00,VWS V13.01,2013-05-14 14:22:00,
2013-05-14 07:27:00,56.6,50.2,17.59,SW,234,0.0,4.0,79,0.00,,---,0.00,VWS V13.01,2013-05-14 14:27:00,
2013-05-14 07:32:00,56.6,50.2,29.78,WNW,283,0.0,6.0,79,0.00,,---,0.00,VWS V13.01,2013-05-14 14:32:00,
2013-05-14 07:37:00,56.7,50.3,29.78,SSW,205,0.0,6.0,79,0.00,,---,0.00,VWS V13.01,2013-05-14 14:37:00,
2013-05-14 07:42:00,57.1,50.7,29.78,WSW,249,0.0,6.0,79,0.00,,---,0.00,VWS V13.01,2013-05-14 14:42:00,
2013-05-14 07:47:00,57.3,50.5,29.78,WNW,289,3.0,6.0,78,0.00,,---,0.00,VWS V13.01,2013-05-14 14:47:00,
2013-05-14 07:52:00,57.5,50.7,29.78,SW,236,0.0,6.0,78,0.00,,---,0.00,VWS V13.01,2013-05-14 14:52:00,
2013-05-14 07:57:00,57.9,51.4,29.78,SW,234,0.0,6.0,79,0.00,,---,0.00,VWS V13.01,2013-05-14 14:57:00,
2013-05-14 08:02:00,58.3,51.1,29.78,WNW,292,0.0,6.0,77,0.00,,---,0.00,VWS V13.01,2013-05-14 15:02:00,
2013-05-14 08:07:00,58.6,51.8,29.78,WSW,246,0.0,3.0,78,0.00,,---,0.00,VWS V13.01,2013-05-14 15:07:00,
2013-05-14 08:12:00,59.0,51.5,28.41,SSW,199,0.0,6.0,76,0.00,,---,0.00,VWS V13.01,2013-05-14 15:12:00,
2013-05-14 08:17:00,59.4,51.5,28.41,SW,232,4.0,9.0,75,0.00,,---,0.00,VWS V13.01,2013-05-14 15:17:00,
2013-05-14 08:22:00,59.4,51.5,28.41,SW,220,5.0,9.0,75,0.00,,---,0.00,VWS V13.01,2013-05-14 15:22:00,
2013-05-14 08:27:00,59.4,51.5,28.41,WSW,240,2.0,9.0,75,0.00,,---,0.00,VWS V13.01,2013-05-14 15:27:00,
2013-05-14 08:32:00,59.5,51.2,28.41,WSW,237,2.0,9.0,74,0.00,,---,0.00,VWS V13.01,2013-05-14 15:32:00,
2013-05-14 08:37:00,59.9,51.6,28.41,SSW,197,1.0,10.0,74,0.00,,---,0.00,VWS V13.01,2013-05-14 15:37:00,
2013-05-14 08:42:00,60.3,51.6,28.41,SW,236,0.0,10.0,73,0.00,,---,0.00,VWS V13.01,2013-05-14 15:42:00,
2013-05-14 08:47:00,60.8,52.1,28.41,SSW,202,2.0,10.0,73,0.00,,---,0.00,VWS V13.01,2013-05-14 15:47:00,
2013-05-14 08:52:00,61.5,52.4,28.41,SSW,208,0.0,10.0,72,0.00,,---,0.00,VWS V13.01,2013-05-14 15:52:00,
2013-05-14 08:57:00,62.0,52.5,28.41,SW,227,0.0,10.0,71,0.00,,---,0.00,VWS V13.01,2013-05-14 15:57:00,
2013-05-14 09:02:00,62.5,53.0,29.54,WNW,288,6.0,10.0,71,0.00,,---,0.00,VWS V13.01,2013-05-14 16:02:00,
2013-05-14 09:07:00,62.1,52.6,29.54,WNW,286,4.0,9.0,71,0.00,,---,0.00,VWS V13.01,2013-05-14 16:07:00,
2013-05-14 09:12:00,62.2,52.7,29.54,SW,236,0.0,9.0,71,0.00,,---,0.00,VWS V13.01,2013-05-14 16:12:00,
2013-05-14 09:17:00,62.9,53.0,29.54,SSW,194,0.0,11.0,70,0.00,,---,0.00,VWS V13.01,2013-05-14 16:17:00,
2013-05-14 09:22:00,63.8,53.5,29.54,WSW,247,0.0,11.0,69,0.00,,---,0.00,VWS V13.01,2013-05-14 16:22:00,
2013-05-14 09:27:00,64.5,53.3,29.54,SSW,195,1.0,11.0,67,0.00,,---,0.00,VWS V13.01,2013-05-14 16:27:00,
2013-05-14 09:32:00,65.4,53.8,29.54,South,173,0.0,11.0,66,0.00,,---,0.00,VWS V13.01,2013-05-14 16:32:00,
2013-05-14 09:37:00,66.2,53.7,29.54,SSW,200,0.0,11.0,64,0.00,,---,0.00,VWS V13.01,2013-05-14 16:37:00,
2013-05-14 09:42:00,67.0,54.0,29.54,SSE,164,0.0,11.0,63,0.00,,---,0.00,VWS V13.01,2013-05-14 16:42:00,
2013-05-14 09:47:00,67.7,54.2,29.54,NW,317,1.0,11.0,62,0.00,,---,0.00,VWS V13.01,2013-05-14 16:47:00,
2013-05-14 09:52:00,67.6,53.2,29.54,WSW,239,0.0,11.0,60,0.00,,---,0.00,VWS V13.01,2013-05-14 16:52:00,
2013-05-14 09:57:00,67.4,53.5,29.54,South,191,0.0,11.0,61,0.00,,---,0.00,VWS V13.01,2013-05-14 16:57:00,
2013-05-14 10:02:00,67.9,53.5,29.54,SSW,198,4.0,11.0,60,0.00,,---,0.00,VWS V13.01,2013-05-14 17:02:00,
2013-05-14 10:07:00,68.5,54.1,29.54,South,170,2.0,6.0,60,0.00,,---,0.00,VWS V13.01,2013-05-14 17:07:00,
2013-05-14 10:12:00,68.9,53.5,29.54,SSW,200,0.0,7.0,58,0.00,,---,0.00,VWS V13.01,2013-05-14 17:12:00,
2013-05-14 10:17:00,69.4,54.0,29.54,South,186,0.0,7.0,58,0.00,,---,0.00,VWS V13.01,2013-05-14 17:17:00,
2013-05-14 10:22:00,70.1,54.2,29.54,SW,222,1.0,7.0,57,0.00,,---,0.00,VWS V13.01,2013-05-14 17:22:00,
2013-05-14 10:27:00,70.6,54.6,29.54,South,186,0.0,9.0,57,0.00,,---,0.00,VWS V13.01,2013-05-14 17:27:00,
2013-05-14 10:32:00,71.0,54.5,29.54,South,169,2.0,9.0,56,0.00,,---,0.00,VWS V13.01,2013-05-14 17:32:00,
2013-05-14 10:37:00,71.1,54.6,29.54,SSE,167,0.0,11.0,56,0.00,,---,0.00,VWS V13.01,2013-05-14 17:37:00,
2013-05-14 10:42:00,71.1,54.6,29.54,SSE,163,1.0,11.0,56,0.00,,---,0.00,VWS V13.01,2013-05-14 17:42:00,
2013-05-14 10:47:00,71.1,54.6,29.54,SSE,161,0.0,11.0,56,0.00,,---,0.00,VWS V13.01,2013-05-14 17:47:00,
2013-05-14 10:52:00,71.3,55.3,29.54,SSE,166,0.0,11.0,57,0.00,,---,0.00,VWS V13.01,2013-05-14 17:52:00,
2013-05-14 10:57:00,71.3,54.3,29.54,South,190,0.0,12.0,55,0.00,,---,0.00,VWS V13.01,2013-05-14 17:57:00,
2013-05-14 11:02:00,71.1,54.1,29.54,SSE,161,3.0,14.0,55,0.00,,---,0.00,VWS V13.01,2013-05-14 18:02:00,
2013-05-14 11:07:00,71.1,54.1,29.54,South,178,2.0,11.0,55,0.00,,---,0.00,VWS V13.01,2013-05-14 18:07:00,
2013-05-14 11:12:00,71.0,54.0,29.54,South,182,1.0,11.0,55,0.00,,---,0.00,VWS V13.01,2013-05-14 18:12:00,
2013-05-14 11:17:00,71.0,53.5,29.54,SSE,147,0.0,13.0,54,0.00,,---,0.00,VWS V13.01,2013-05-14 18:17:00,
2013-05-14 11:22:00,71.2,53.7,29.54,SSE,159,5.0,13.0,54,0.00,,---,0.00,VWS V13.01,2013-05-14 18:22:00,
2013-05-14 11:27:00,71.4,53.9,29.54,SSE,163,0.0,13.0,54,0.00,,---,0.00,VWS V13.01,2013-05-14 18:27:00,
2013-05-14 11:32:00,71.4,53.4,29.54,South,183,6.0,13.0,53,0.00,,---,0.00,VWS V13.01,2013-05-14 18:32:00,
2013-05-14 11:37:00,71.5,53.5,29.54,West,271,0.0,13.0,53,0.00,,---,0.00,VWS V13.01,2013-05-14 18:37:00,
2013-05-14 11:42:00,71.8,53.8,29.54,SSW,209,0.0,13.0,53,0.00,,---,0.00,VWS V13.01,2013-05-14 18:42:00,
2013-05-14 11:47:00,72.2,54.1,29.54,SSW,210,0.0,13.0,53,0.00,,---,0.00,VWS V13.01,2013-05-14 18:47:00,
2013-05-14 11:52:00,72.6,54.0,29.54,SSE,160,1.0,13.0,52,0.00,,---,0.00,VWS V13.01,2013-05-14 18:52:00,
2013-05-14 11:57:00,72.7,53.5,29.54,South,178,1.0,13.0,51,0.00,,---,0.00,VWS V13.01,2013-05-14 18:57:00,
2013-05-14 12:02:00,72.8,53.6,29.54,SSW,206,0.0,13.0,51,0.00,,---,0.00,VWS V13.01,2013-05-14 19:02:00,
2013-05-14 12:07:00,73.1,53.9,29.54,South,176,5.0,9.0,51,0.00,,---,0.00,VWS V13.01,2013-05-14 19:07:00,
2013-05-14 12:12:00,73.4,54.2,29.54,WSW,252,0.0,10.0,51,0.00,,---,0.00,VWS V13.01,2013-05-14 19:12:00,
2013-05-14 12:17:00,73.6,53.8,29.54,South,180,1.0,10.0,50,0.00,,---,0.00,VWS V13.01,2013-05-14 19:17:00,
2013-05-14 12:22:00,73.2,54.0,29.54,SSW,204,1.0,10.0,51,0.00,,---,0.00,VWS V13.01,2013-05-14 19:22:00,
2013-05-14 12:27:00,73.5,54.8,32.49,SSW,195,1.0,10.0,52,0.00,,---,0.00,VWS V13.01,2013-05-14 19:27:00,
2013-05-14 12:32:00,74.1,54.3,32.49,WSW,250,1.0,10.0,50,0.00,,---,0.00,VWS V13.01,2013-05-14 19:32:00,
2013-05-14 12:37:00,74.6,54.2,32.49,South,171,1.0,10.0,49,0.00,,---,0.00,VWS V13.01,2013-05-14 19:37:00,
2013-05-14 12:42:00,75.3,54.8,32.49,SSW,198,5.0,10.0,49,0.00,,---,0.00,VWS V13.01,2013-05-14 19:42:00,
2013-05-14 12:47:00,76.0,54.9,32.49,SW,215,0.0,10.0,48,0.00,,---,0.00,VWS V13.01,2013-05-14 19:47:00,
2013-05-14 12:52:00,76.0,53.8,32.49,SW,226,3.0,10.0,46,0.00,,---,0.00,VWS V13.01,2013-05-14 19:52:00,
2013-05-14 12:57:00,75.7,55.2,32.49,South,179,0.0,10.0,49,0.00,,---,0.00,VWS V13.01,2013-05-14 19:57:00,
2013-05-14 13:02:00,76.1,54.4,32.49,South,183,3.0,11.0,47,0.00,,---,0.00,VWS V13.01,2013-05-14 20:02:00,
2013-05-14 13:07:00,76.5,55.4,32.49,SSW,200,5.0,5.0,48,0.00,,---,0.00,VWS V13.01,2013-05-14 20:07:00,
2013-05-14 13:12:00,77.0,55.8,16.48,SSW,203,6.0,10.0,48,0.00,,---,0.00,VWS V13.01,2013-05-14 20:12:00,
2013-05-14 13:17:00,77.2,55.4,16.48,WSW,237,0.0,10.0,47,0.00,,---,0.00,VWS V13.01,2013-05-14 20:17:00,
2013-05-14 13:22:00,76.9,54.6,16.48,SSW,211,0.0,10.0,46,0.00,,---,0.00,VWS V13.01,2013-05-14 20:22:00,
2013-05-14 13:27:00,76.5,54.8,23.30,SW,223,0.0,12.0,47,0.00,,---,0.00,VWS V13.01,2013-05-14 20:27:00,
2013-05-14 13:32:00,76.6,54.9,27.90,South,180,0.0,12.0,47,0.00,,---,0.00,VWS V13.01,2013-05-14 20:32:00,
2013-05-14 13:37:00,77.1,54.8,27.90,SW,232,4.0,12.0,46,0.00,,---,0.00,VWS V13.01,2013-05-14 20:37:00,
2013-05-14 13:42:00,77.3,54.9,27.90,SW,232,3.0,12.0,46,0.00,,---,0.00,VWS V13.01,2013-05-14 20:42:00,
2013-05-14 13:47:00,77.4,55.0,27.90,SSW,196,2.0,12.0,46,0.00,,---,0.00,VWS V13.01,2013-05-14 20:47:00,
2013-05-14 13:52:00,77.8,54.8,27.90,South,182,3.0,12.0,45,0.00,,---,0.00,VWS V13.01,2013-05-14 20:52:00,
2013-05-14 13:57:00,78.0,55.0,27.90,SSW,213,5.0,12.0,45,0.00,,---,0.00,VWS V13.01,2013-05-14 20:57:00,
2013-05-14 14:02:00,78.4,54.1,27.90,WSW,237,1.0,12.0,43,0.00,,---,0.00,VWS V13.01,2013-05-14 21:02:00,
2013-05-14 14:07:00,78.5,54.8,27.90,WSW,243,1.0,10.0,44,0.00,,---,0.00,VWS V13.01,2013-05-14 21:07:00,
2013-05-14 14:12:00,78.3,54.6,27.90,WSW,257,0.0,10.0,44,0.00,,---,0.00,VWS V13.01,2013-05-14 21:12:00,
2013-05-14 14:17:00,76.9,50.8,27.90,WNW,298,0.0,10.0,40,0.00,,---,0.00,VWS V13.01,2013-05-14 21:17:00,
2013-05-14 14:22:00,76.2,48.0,27.90,NNE,22,0.0,10.0,37,0.00,,---,0.00,VWS V13.01,2013-05-14 21:22:00,
2013-05-14 14:27:00,76.1,50.0,27.90,WNW,290,1.0,13.0,40,0.00,,---,0.00,VWS V13.01,2013-05-14 21:27:00,
2013-05-14 14:32:00,76.0,49.3,27.90,WNW,297,3.0,13.0,39,0.00,,---,0.00,VWS V13.01,2013-05-14 21:32:00,
2013-05-14 14:37:00,75.9,49.2,27.90,SW,217,5.0,13.0,39,0.00,,---,0.00,VWS V13.01,2013-05-14 21:37:00,
2013-05-14 14:42:00,75.8,48.4,27.90,West,266,9.0,13.0,38,0.00,,---,0.00,VWS V13.01,2013-05-14 21:42:00,
2013-05-14 14:47:00,75.5,48.1,27.90,WNW,294,5.0,13.0,38,0.00,,---,0.00,VWS V13.01,2013-05-14 21:47:00,
2013-05-14 14:52:00,75.7,48.3,27.90,West,281,4.0,13.0,38,0.00,,---,0.00,VWS V13.01,2013-05-14 21:52:00,
2013-05-14 14:57:00,75.7,48.3,27.90,SW,228,3.0,13.0,38,0.00,,---,0.00,VWS V13.01,2013-05-14 21:57:00,
2013-05-14 15:02:00,76.0,48.6,27.90,WNW,295,0.0,13.0,38,0.00,,---,0.00,VWS V13.01,2013-05-14 22:02:00,
2013-05-14 15:07:00,76.0,48.6,27.90,NW,304,6.0,12.0,38,0.00,,---,0.00,VWS V13.01,2013-05-14 22:07:00,
2013-05-14 15:12:00,75.5,48.8,27.90,NW,313,3.0,13.0,39,0.00,,---,0.00,VWS V13.01,2013-05-14 22:12:00,
2013-05-14 15:17:00,75.7,49.0,27.90,WNW,291,4.0,13.0,39,0.00,,---,0.00,VWS V13.01,2013-05-14 22:17:00,
2013-05-14 15:22:00,75.7,48.3,27.90,West,277,3.0,13.0,38,0.00,,---,0.00,VWS V13.01,2013-05-14 22:22:00,
2013-05-14 15:27:00,75.6,48.9,27.90,WNW,299,7.0,13.0,39,0.00,,---,0.00,VWS V13.01,2013-05-14 22:27:00,
2013-05-14 15:32:00,75.8,49.1,27.90,NW,310,3.0,13.0,39,0.00,,---,0.00,VWS V13.01,2013-05-14 22:32:00,
2013-05-14 15:37:00,76.4,48.9,27.90,WNW,301,5.0,13.0,38,0.00,,---,0.00,VWS V13.01,2013-05-14 22:37:00,
2013-05-14 15:42:00,76.5,48.3,27.90,SW,215,3.0,13.0,37,0.00,,---,0.00,VWS V13.01,2013-05-14 22:42:00,
2013-05-14 15:47:00,76.6,49.1,27.90,WSW,246,4.0,13.0,38,0.00,,---,0.00,VWS V13.01,2013-05-14 22:47:00,
2013-05-14 15:52:00,76.8,48.6,27.90,WNW,298,6.0,13.0,37,0.00,,---,0.00,VWS V13.01,2013-05-14 22:52:00,
2013-05-14 15:57:00,76.3,48.8,27.90,WNW,292,4.0,14.0,38,0.00,,---,0.00,VWS V13.01,2013-05-14 22:57:00,
2013-05-14 16:02:00,76.1,48.7,27.90,SW,234,4.0,14.0,38,0.00,,---,0.00,VWS V13.01,2013-05-14 23:02:00,
2013-05-14 16:07:00,76.1,48.7,27.90,WNW,284,9.0,9.0,38,0.00,,---,0.00,VWS V13.01,2013-05-14 23:07:00,
2013-05-14 16:12:00,76.2,49.5,27.90,SW,218,7.0,9.0,39,0.00,,---,0.00,VWS V13.01,2013-05-14 23:12:00,
2013-05-14 16:17:00,76.4,48.9,27.90,WNW,292,6.0,12.0,38,0.00,,---,0.00,VWS V13.01,2013-05-14 23:17:00,
2013-05-14 16:21:00,76.6,49.1,27.90,WSW,253,2.0,12.0,38,0.00,,---,0.00,VWS V13.01,2013-05-14 23:21:00,
2013-05-14 16:26:00,76.3,48.8,27.90,WNW,284,13.0,13.0,38,0.00,,---,0.00,VWS V13.01,2013-05-14 23:26:00,
2013-05-14 16:31:00,76.2,48.8,27.90,WNW,292,10.0,13.0,38,0.00,,---,0.00,VWS V13.01,2013-05-14 23:31:00,
2013-05-14 16:36:00,76.3,48.1,27.90,West,270,3.0,13.0,37,0.00,,---,0.00,VWS V13.01,2013-05-14 23:36:00,
2013-05-14 16:41:00,76.0,48.6,27.90,WNW,300,3.0,13.0,38,0.00,,---,0.00,VWS V13.01,2013-05-14 23:41:00,
2013-05-14 16:46:00,76.7,48.5,27.90,SSW,203,5.0,13.0,37,0.00,,---,0.00,VWS V13.01,2013-05-14 23:46:00,
2013-05-14 16:51:00,76.2,48.8,27.90,WNW,282,2.0,13.0,38,0.00,,---,0.00,VWS V13.01,2013-05-14 23:51:00,
2013-05-14 16:56:00,76.2,48.8,27.90,WNW,288,12.0,13.0,38,0.00,,---,0.00,VWS V13.01,2013-05-14 23:56:00,
2013-05-14 17:01:00,75.1,48.5,27.90,West,267,6.0,13.0,39,0.00,,---,0.00,VWS V13.01,2013-05-15 00:01:00,
2013-05-14 17:06:00,75.7,49.0,27.90,SW,219,7.0,9.0,39,0.00,,---,0.00,VWS V13.01,2013-05-15 00:06:00,
2013-05-14 17:11:00,75.8,48.4,27.90,West,273,4.0,15.0,38,0.00,,---,0.00,VWS V13.01,2013-05-15 00:11:00,
2013-05-14 17:16:00,75.6,48.2,27.90,WNW,292,7.0,15.0,38,0.00,,---,0.00,VWS V13.01,2013-05-15 00:16:00,
2013-05-14 17:21:00,75.7,48.3,27.90,WNW,290,4.0,15.0,38,0.00,,---,0.00,VWS V13.01,2013-05-15 00:21:00,
2013-05-14 17:26:00,75.5,48.8,27.90,West,280,4.0,15.0,39,0.00,,---,0.00,VWS V13.01,2013-05-15 00:26:00,
2013-05-14 17:31:00,75.6,48.9,27.90,WSW,248,1.0,15.0,39,0.00,,---,0.00,VWS V13.01,2013-05-15 00:31:00,
2013-05-14 17:36:00,75.1,48.5,27.90,SW,221,1.0,15.0,39,0.00,,---,0.00,VWS V13.01,2013-05-15 00:36:00,
2013-05-14 17:41:00,74.6,48.7,27.90,WNW,296,3.0,15.0,40,0.00,,---,0.00,VWS V13.01,2013-05-15 00:41:00,
2013-05-14 17:46:00,74.0,48.2,27.90,WNW,287,10.0,15.0,40,0.00,,---,0.00,VWS V13.01,2013-05-15 00:46:00,
2013-05-14 17:51:00,73.2,48.1,27.90,WNW,301,5.0,15.0,41,0.00,,---,0.00,VWS V13.01,2013-05-15 00:51:00,
2013-05-14 17:56:00,72.9,47.8,27.90,SW,227,2.0,15.0,41,0.00,,---,0.00,VWS V13.01,2013-05-15 00:56:00,
2013-05-14 18:01:00,72.8,47.1,27.90,West,276,1.0,15.0,40,0.00,,---,0.00,VWS V13.01,2013-05-15 01:01:00,
2013-05-14 18:06:00,71.6,47.9,27.90,WNW,292,5.0,13.0,43,0.00,,---,0.00,VWS V13.01,2013-05-15 01:06:00,
2013-05-14 18:11:00,71.6,47.9,27.90,WNW,298,4.0,13.0,43,0.00,,---,0.00,VWS V13.01,2013-05-15 01:11:00,
2013-05-14 18:16:00,71.2,47.6,27.90,WNW,285,0.0,13.0,43,0.00,,---,0.00,VWS V13.01,2013-05-15 01:16:00,
2013-05-14 18:21:00,70.4,46.9,27.90,NW,306,6.0,13.0,43,0.00,,---,0.00,VWS V13.01,2013-05-15 01:21:00,
2013-05-14 18:26:00,69.6,47.3,27.90,WNW,287,3.0,13.0,45,0.00,,---,0.00,VWS V13.01,2013-05-15 01:26:00,
2013-05-14 18:31:00,69.1,47.5,27.90,WNW,297,7.0,13.0,46,0.00,,---,0.00,VWS V13.01,2013-05-15 01:31:00,
2013-05-14 18:36:00,68.8,47.2,27.90,West,277,3.0,13.0,46,0.00,,---,0.00,VWS V13.01,2013-05-15 01:36:00,
2013-05-14 18:41:00,68.6,47.6,27.90,SW,234,4.0,13.0,47,0.00,,---,0.00,VWS V13.01,2013-05-15 01:41:00,
2013-05-14 18:46:00,68.0,47.0,27.90,West,275,2.0,13.0,47,0.00,,---,0.00,VWS V13.01,2013-05-15 01:46:00,
2013-05-14 18:51:00,67.9,47.5,27.90,West,272,4.0,13.0,48,0.00,,---,0.00,VWS V13.01,2013-05-15 01:51:00,
2013-05-14 18:56:00,67.8,47.4,27.90,West,274,0.0,13.0,48,0.00,,---,0.00,VWS V13.01,2013-05-15 01:56:00,
2013-05-14 19:01:00,67.6,47.8,27.90,WSW,237,0.0,13.0,49,0.00,,---,0.00,VWS V13.01,2013-05-15 02:01:00,
2013-05-14 19:06:00,67.7,47.3,27.90,WNW,290,3.0,6.0,48,0.00,,---,0.00,VWS V13.01,2013-05-15 02:06:00,
2013-05-14 19:11:00,67.1,46.8,27.90,SW,236,0.0,6.0,48,0.00,,---,0.00,VWS V13.01,2013-05-15 02:11:00,
2013-05-14 19:16:00,66.7,47.0,27.90,SSW,206,0.0,7.0,49,0.00,,---,0.00,VWS V13.01,2013-05-15 02:16:00,
2013-05-14 19:21:00,66.3,47.1,27.90,SW,230,2.0,7.0,50,0.00,,---,0.00,VWS V13.01,2013-05-15 02:21:00,
2013-05-14 19:26:00,65.8,46.7,27.90,SW,223,0.0,7.0,50,0.00,,---,0.00,VWS V13.01,2013-05-15 02:26:00,
2013-05-14 19:31:00,65.4,46.8,27.90,SW,215,0.0,7.0,51,0.00,,---,0.00,VWS V13.01,2013-05-15 02:31:00,
2013-05-14 19:36:00,64.9,46.4,27.90,SSW,212,0.0,7.0,51,0.00,,---,0.00,VWS V13.01,2013-05-15 02:36:00,
2013-05-14 19:58:00,57.8,45.7,27.90,WNW,290,4.0,14.0,64,0.00,,---,0.00,VWS V13.01,2013-05-15 02:58:00,
2013-05-14 19:59:00,57.8,45.7,27.90,West,280,1.0,14.0,64,0.00,,---,0.00,VWS V13.01,2013-05-15 02:59:00,
2013-05-14 20:00:00,57.7,45.6,27.90,NW,312,0.0,14.0,64,0.00,,---,0.00,VWS V13.01,2013-05-15 03:00:00,
2013-05-14 20:01:00,57.7,45.6,27.90,WNW,284,0.0,14.0,64,0.00,,---,0.00,VWS V13.01,2013-05-15 03:01:00,
2013-05-14 20:02:00,60.9,45.6,27.90,WSW,248,0.0,13.0,57,0.00,,---,0.00,VWS V13.01,2013-05-15 03:02:00,
2013-05-14 20:40:00,58.5,45.5,27.90,SW,217,2.0,14.0,62,0.00,,---,0.00,VWS V13.01,2013-05-15 03:40:00,
2013-05-14 20:45:00,58.3,45.8,27.90,WNW,303,4.0,14.0,63,0.00,,---,0.00,VWS V13.01,2013-05-15 03:45:00,
2013-05-14 20:50:00,58.1,45.6,27.90,SW,235,3.0,14.0,63,0.00,,---,0.00,VWS V13.01,2013-05-15 03:50:00,
2013-05-14 20:55:00,57.9,45.8,27.90,WNW,285,7.0,14.0,64,0.00,,---,0.00,VWS V13.01,2013-05-15 03:55:00,
2013-05-14 21:00:00,57.8,45.7,27.90,WNW,302,6.0,14.0,64,0.00,,---,0.00,VWS V13.01,2013-05-15 04:00:00,
2013-05-14 21:03:00,57.7,45.6,27.90,WNW,300,2.0,14.0,64,0.00,,---,0.00,VWS V13.01,2013-05-15 04:03:00,
2013-05-14 21:08:00,57.6,45.9,27.90,West,276,0.0,14.0,65,0.00,,---,0.00,VWS V13.01,2013-05-15 04:08:00,
2013-05-14 21:13:00,57.6,45.9,27.90,SSW,207,1.0,14.0,65,0.00,,---,0.00,VWS V13.01,2013-05-15 04:13:00,
2013-05-14 21:18:00,57.5,45.8,27.90,SW,225,1.0,14.0,65,0.00,,---,0.00,VWS V13.01,2013-05-15 04:18:00,
2013-05-14 21:23:00,57.4,46.2,27.90,SW,226,0.0,14.0,66,0.00,,---,0.00,VWS V13.01,2013-05-15 04:23:00,
2013-05-14 21:28:00,57.3,46.0,27.90,WSW,242,1.0,14.0,66,0.00,,---,0.00,VWS V13.01,2013-05-15 04:28:00,
2013-05-14 21:33:00,57.2,46.0,27.90,WSW,252,0.0,14.0,66,0.00,,---,0.00,VWS V13.01,2013-05-15 04:33:00,
2013-05-14 21:38:00,57.0,46.2,27.90,SW,229,0.0,14.0,67,0.00,,---,0.00,VWS V13.01,2013-05-15 04:38:00,
2013-05-14 21:43:00,56.9,46.1,27.90,WNW,288,0.0,14.0,67,0.00,,---,0.00,VWS V13.01,2013-05-15 04:43:00,
2013-05-14 21:48:00,56.9,46.1,27.90,SW,230,0.0,14.0,67,0.00,,---,0.00,VWS V13.01,2013-05-15 04:48:00,
2013-05-14 21:53:00,56.8,46.0,27.90,SW,229,0.0,14.0,67,0.00,,---,0.00,VWS V13.01,2013-05-15 04:53:00,
2013-05-14 21:58:00,56.7,46.3,27.90,SW,221,0.0,14.0,68,0.00,,---,0.00,VWS V13.01,2013-05-15 04:58:00,
2013-05-14 22:03:00,56.6,46.2,27.90,West,261,2.0,2.0,68,0.00,,---,0.00,VWS V13.01,2013-05-15 05:03:00,
2013-05-14 22:08:00,56.2,46.2,27.90,WNW,303,0.0,9.0,69,0.00,,---,0.00,VWS V13.01,2013-05-15 05:08:00,
2013-05-14 22:13:00,55.9,46.3,27.90,WNW,291,4.0,9.0,70,0.00,,---,0.00,VWS V13.01,2013-05-15 05:13:00,
2013-05-14 22:18:00,55.5,45.9,27.90,WSW,237,0.0,11.0,70,0.00,,---,0.00,VWS V13.01,2013-05-15 05:18:00,
2013-05-14 22:23:00,55.3,46.1,27.90,West,259,0.0,11.0,71,0.00,,---,0.00,VWS V13.01,2013-05-15 05:23:00,
2013-05-14 22:28:00,55.1,45.9,27.90,WNW,288,1.0,13.0,71,0.00,,---,0.00,VWS V13.01,2013-05-15 05:28:00,
2013-05-14 22:33:00,54.9,46.1,27.90,SW,227,1.0,13.0,72,0.00,,---,0.00,VWS V13.01,2013-05-15 05:33:00,
2013-05-14 22:38:00,54.7,45.9,27.90,SW,227,3.0,13.0,72,0.00,,---,0.00,VWS V13.01,2013-05-15 05:38:00,
2013-05-14 22:43:00,54.6,46.1,27.90,SW,220,0.0,13.0,73,0.00,,---,0.00,VWS V13.01,2013-05-15 05:43:00,
2013-05-14 22:48:00,54.5,46.0,27.90,SSW,213,7.0,13.0,73,0.00,,---,0.00,VWS V13.01,2013-05-15 05:48:00,
2013-05-14 22:53:00,54.4,45.9,27.90,SW,221,3.0,13.0,73,0.00,,---,0.00,VWS V13.01,2013-05-15 05:53:00,
2013-05-14 22:58:00,54.4,45.9,29.54,WNW,300,0.0,13.0,73,0.00,,---,0.00,VWS V13.01,2013-05-15 05:58:00,
2013-05-14 23:03:00,54.4,45.9,29.54,West,270,0.0,13.0,73,0.00,,---,0.00,VWS V13.01,2013-05-15 06:03:00,